Location: Clinton NY
(43.0598°N, 75.3602°W)
Time: 03:51:03
(UTC-04:00)

ISS - All Passes

Search period start: 24 April 2014 00:00
Search period end: 04 May 2014 00:00
Orbit: 413 x 418 km, 51.6° (Epoch: 24 April)

Date Brightness Start Highest point End Pass type
(mag) Time Alt. Az. Time Alt. Az. Time Alt. Az.
24 Apr - 13:23:02 10° SSW 13:25:59 30° SE 13:28:57 10° ENE daylight
24 Apr - 14:59:27 10° W 15:02:38 41° NNW 15:05:50 10° NE daylight
24 Apr - 16:37:30 10° NW 16:39:59 19° N 16:42:29 10° NE daylight
24 Apr - 18:14:43 10° NW 18:17:31 24° NNE 18:20:19 10° ENE daylight
24 Apr - 19:51:12 10° WNW 19:54:34 88° SSW 19:57:55 10° SE daylight
24 Apr - 21:29:37 10° WSW 21:30:48 12° SW 21:31:59 10° SSW visible
25 Apr - 12:35:00 10° S 12:37:19 18° SE 12:39:39 10° E daylight
25 Apr - 14:10:26 10° WSW 14:13:44 62° NNW 14:17:04 10° NE daylight
25 Apr - 15:48:18 10° WNW 15:50:56 21° N 15:53:34 10° NE daylight
25 Apr - 17:25:53 10° NW 17:28:29 21° N 17:31:05 10° ENE daylight
25 Apr - 19:02:23 10° NW 19:05:42 57° NNE 19:09:01 10° ESE daylight
25 Apr - 20:39:40 10° W 20:42:09 20° SW 20:44:39 10° S visible
26 Apr - 11:48:11 10° SE 11:48:38 10° SE 11:49:06 10° ESE daylight
26 Apr - 13:21:29 10° SW 13:24:49 81° SE 13:28:09 10° ENE daylight
26 Apr - 14:59:00 10° WNW 15:01:49 25° NNW 15:04:39 10° NE daylight
26 Apr - 16:36:52 10° NW 16:39:20 19° N 16:41:48 10° NE daylight
26 Apr - 18:13:32 10° NW 18:16:42 38° NNE 18:19:51 10° E daylight
26 Apr - 19:50:19 10° WNW 19:53:22 33° SW 19:56:24 10° SSE daylight
27 Apr - 12:32:40 10° SW 12:35:51 46° SE 12:39:04 10° ENE daylight
27 Apr - 14:09:37 10° W 14:12:39 31° NNW 14:15:42 10° NE daylight
27 Apr - 15:47:39 10° NW 15:50:05 18° N 15:52:31 10° NE daylight
27 Apr - 17:24:35 10° NW 17:27:33 28° NNE 17:30:30 10° E daylight
27 Apr - 19:01:08 10° WNW 19:04:25 58° SW 19:07:42 10° SE daylight
28 Apr - 11:44:02 10° SSW 11:46:53 27° SE 11:49:44 10° ENE daylight
28 Apr - 13:20:14 10° W 13:23:27 44° NNW 13:26:40 10° NE daylight
28 Apr - 14:58:15 10° NW 15:00:45 19° N 15:03:15 10° NE daylight
28 Apr - 16:35:31 10° NW 16:38:16 23° NNE 16:41:00 10° ENE daylight
28 Apr - 18:11:59 10° NW 18:15:20 83° NNE 18:18:40 10° ESE daylight
28 Apr - 19:49:59 10° WSW 19:51:35 13° SW 19:53:11 10° SSW daylight
29 Apr - 10:55:47 10° S 10:57:52 16° SE 10:59:57 10° E daylight
29 Apr - 12:30:53 10° WSW 12:34:12 69° NNW 12:37:32 10° NE daylight
29 Apr - 14:08:40 10° WNW 14:11:20 22° NNW 14:14:00 10° NE daylight
29 Apr - 15:46:18 10° NW 15:48:51 20° N 15:51:24 10° ENE daylight
29 Apr - 17:22:49 10° NW 17:26:05 52° NNE 17:29:21 10° ESE daylight
29 Apr - 18:59:55 10° W 19:02:34 22° SW 19:05:12 10° S daylight
30 Apr - 11:41:38 10° SW 11:44:56 71° SE 11:48:15 10° ENE daylight
30 Apr - 13:19:00 10° WNW 13:21:52 26° NNW 13:24:44 10° NE daylight
30 Apr - 14:56:54 10° NW 14:59:20 18° N 15:01:46 10° NE daylight
30 Apr - 16:33:35 10° NW 16:36:42 35° NNE 16:39:48 10° E daylight
30 Apr - 18:10:17 10° WNW 18:13:24 37° SW 18:16:30 10° SSE daylight
01 May - 10:52:30 10° SSW 10:55:37 40° SE 10:58:46 10° ENE daylight
01 May - 12:29:16 10° W 12:32:20 34° NNW 12:35:25 10° NE daylight
01 May - 14:07:17 10° NW 14:09:43 18° N 14:12:08 10° NE daylight
01 May - 15:44:16 10° NW 15:47:10 27° NNE 15:50:03 10° ENE daylight
01 May - 17:20:46 10° WNW 17:24:04 67° SW 17:27:22 10° SE daylight
02 May - 10:03:37 10° S 10:06:18 23° SE 10:09:00 10° E daylight
02 May - 11:39:32 10° WSW 11:42:47 49° NNW 11:46:02 10° NE daylight
02 May - 13:17:29 10° WNW 13:20:01 20° N 13:22:32 10° NE daylight
02 May - 14:54:50 10° NW 14:57:30 22° NNE 15:00:11 10° ENE daylight
02 May - 16:31:16 10° NW 16:34:36 73° NNE 16:37:55 10° ESE daylight
02 May - 18:08:55 10° W 18:10:54 15° SW 18:12:52 10° SSW daylight
03 May - 09:15:14 10° SSE 09:16:57 13° SE 09:18:39 10° E daylight
03 May - 10:49:52 10° WSW 10:53:11 80° NNW 10:56:31 10° NE daylight
03 May - 12:27:32 10° WNW 12:30:14 22° NNW 12:32:57 10° NE daylight
03 May - 14:05:14 10° NW 14:07:43 19° N 14:10:13 10° NE daylight
03 May - 15:41:45 10° NW 15:44:59 45° NNE 15:48:11 10° ESE daylight
03 May - 17:18:41 10° WNW 17:21:30 25° SW 17:24:17 10° SSE daylight
